Location: Estes P
(40.3770°N, 105.5210°W)
Time: 13:07:20
(UTC-06:00)

Envisat - Visible Passes

Search period start: 22 October 2017 00:00
Search period end: 01 November 2017 00:00
Orbit: 764 x 766 km, 98.2° (Epoch: 22 October)

Date Brightness Start Highest point End Pass type
(mag) Time Alt. Az. Time Alt. Az. Time Alt. Az.
22 Oct 4.4 20:05:02 24° NNE 20:05:02 24° NNE 20:07:27 10° N visible
22 Oct 5.6 21:45:15 15° NW 21:45:15 15° NW 21:46:22 10° NW visible
23 Oct 4.8 19:28:03 14° NE 19:28:03 14° NE 19:29:33 10° NNE visible
23 Oct 4.9 21:08:16 23° NNW 21:08:16 23° NNW 21:10:11 10° NNW visible
24 Oct 4.5 20:31:16 25° N 20:31:16 25° N 20:33:25 10° N visible
25 Oct 4.6 19:54:17 19° NNE 19:54:17 19° NNE 19:56:07 10° NNE visible
25 Oct 5.5 21:34:30 15° NW 21:34:30 15° NW 21:35:30 10° NNW visible
26 Oct 5.0 19:17:18 11° NE 19:17:18 11° NE 19:17:40 10° NE visible
26 Oct 5.0 20:57:31 21° NNW 20:57:31 21° NNW 20:59:06 10° NNW visible
27 Oct 4.7 20:20:31 20° N 20:20:31 20° N 20:22:11 10° N visible
28 Oct 4.9 19:43:31 15° NNE 19:43:31 15° NNE 19:44:41 10° NNE visible
28 Oct 5.5 21:23:44 14° NNW 21:23:44 14° NNW 21:24:33 10° NNW visible
29 Oct 5.1 20:46:44 18° N 20:46:44 18° N 20:47:59 10° N visible
30 Oct 4.9 20:09:44 16° NNE 20:09:44 16° NNE 20:10:56 10° N visible
31 Oct 5.1 19:32:45 11° NNE 19:32:45 11° NNE 19:33:09 10° NNE visible
31 Oct 5.5 21:12:57 13° NNW 21:12:57 13° NNW 21:13:32 10° NNW visible
